Regional Weather Roundup
Issued by NWS

Home | Current Version | Previous Version | Text Only | Print | Product List | Glossary Off
Versions: 1 2 3 4 5 6 7 8 9 10 11 12 13 14 15 16 17 18 19 20 21 22 23 24 25 26 27

000
ASUS45 KCYS 221010
RWRWY

WYOMING REGIONAL WEATHER ROUNDUP
NATIONAL WEATHER SERVICE CHEYENNE WY
300 AM MST WED FEB 22 2017

NOTE:  "FAIR" INDICATES FEW OR NO CLOUDS BELOW 12,000 FEET
WITH NO SIGNIFICANT WEATHER AND/OR OBSTRUCTIONS TO VISIBILITY.

WYZ001-221100-
YELLOWSTONE NATIONAL PARK

CITY           SKY/WX    TMP DP  RH WIND       PRES   REMARKS
LK YELLOWSTONE   N/A     22  17  81 VRB6      29.89R WCI  14
W YELLOWSTONE  NOT AVBL

$$
WYZ002>013-054>058-071-098>099-221100-
NORTHERN WYOMING

CITY           SKY/WX    TMP DP  RH WIND       PRES   REMARKS
JACKSON        CLOUDY    28  21  74 SW16      29.91F WCI  17
CODY           FAIR      35  23  61 SW21G29   29.81S WCI  24
GREYBULL       FAIR      38  24  57 VRB5      29.80R WCI  34
WORLAND        FAIR      31  24  75 SE3       29.81R
SHERIDAN       FAIR      40  19  43 N12       29.73R WCI  33
BUFFALO        FAIR      42  16  34 SW23      29.74F
GILLETTE       FAIR      41  31  67 W14       29.73S
HULETT         FAIR      43  30  61 SW6       29.71F
NEWCASTLE      FAIR      39  34  81 S6        29.74F WCI  35

$$
WYZ014>020-022>026-101>103-221100-
CENTRAL WYOMING

CITY           SKY/WX    TMP DP  RH WIND       PRES   REMARKS
BIG PINEY      CLOUDY    25  19  78 W7        29.95F WCI  17
PINEDALE       CLOUDY    27  19  74 SW12      29.95S WCI  16
DUBOIS         FAIR      23  14  68 NW9       29.86R WCI  13
LANDER         NOT AVBL
RIVERTON       FAIR      32  23  69 SW6       29.87F WCI  26
CASPER         CLOUDY    37  25  61 SW22G31   29.83F WCI  26
DOUGLAS        CLOUDY    41  28  60 SW21G29   29.82F

$$
WYZ021-027>030-104>119-221100-
SOUTHERN WYOMING

CITY           SKY/WX    TMP DP  RH WIND       PRES   REMARKS
EVANSTON       LGT SNOW  25  22  88 N10       29.99F VSB 1   WCI  15
FORT BRIDGER   LGT SNOW  27  27 100 NW9       30.03F WCI  17
ROCK SPRINGS   CLOUDY    28  25  88 W13       29.99F WCI  17
DIXON          LGT SNOW  30  29  96 CALM      30.03F
RAWLINS        LGT SNOW  29  25  85 SW16      29.95F FOG     WCI  17
SARATOGA       LGT SNOW  28  28 100 S10       29.98F WCI  19
LARAMIE        CLOUDY    30  21  69 N15       29.94S WCI  19
CHEYENNE       FAIR      36  26  67 NW17G25   29.90S WCI  26
TORRINGTON     FAIR      41  29  62 W13       29.84F
PINE BLUFFS    FAIR      36  28  75 NW21G29   29.88S WCI  24

$$




USA.gov is the U.S. government's official web portal to all federal, state and local government web resources and services.